Home   Weather   Stralsund   Past weeks

Flag for Germany Past Weather in Stralsund, Mecklenburg-Western Pomerania, Germany — Yesterday and Last 2 Weeks

Now
52 °F

Fog.


Feels Like: 52 °F
Forecast: 60 / 69 °F
Wind: 1 mph from North

Location: Laage

Current Time: Aug 31, 2016 at 6:32:28 AM

Latest Report: Aug 31, 2016 at 5:20 AM


Visibility: 0 mi

Pressure: 30.24 "Hg

Humidity: 94%

Dew Point: 50 °F

Location of StralsundLocation

Past Weather in Stralsund — Graph

°F

Stralsund Temperature Yesterday

Maximum temperature yesterday: 72 °F (at 5:20 PM)
Minimum temperature yesterday: 54 °F (at 3:20 AM)
Average temperature yesterday: 61 °F

High & Low Weather Summary for the Past Weeks

 TemperatureHumidityPressure
High91 °F (Aug 26, 3:20 PM)100% (Aug 16, 5:20 AM)30.33 "Hg (Aug 16, 5:20 AM)
Low45 °F (Aug 17, 6:20 AM)29% (Aug 25, 4:55 PM)29.80 "Hg (Aug 18, 7:46 AM)
Average65 °F74%30.05 "Hg
* Reported Aug 16 5:20 AM — Aug 31 5:20 AM, Stralsund, Weather by CustomWeather, © 2016

Note: Actual official high and low records may vary slightly from our data, if they occured in-between our weather recording intervals... More about our weather records

Advertising

Stralsund Weather History for the Previous 24 Hours

Scroll right to see more
 ConditionsComfort  
Time TempWeatherWind HumidityBarometerVisibility
5:20 AM
Wed, Aug 31
52 °FFog.1 mph94%30.24 "Hg0 mi
4:20 AM52 °FFog.No wind100%30.24 "HgN/A
3:20 AM54 °FFog.1 mph94%30.24 "HgN/A
2:20 AM54 °FCool.2 mph94%30.24 "HgN/A
1:20 AM54 °FCool.1 mph94%30.24 "HgN/A
12:20 AM55 °FCool.2 mph88%30.24 "HgN/A
11:20 PM
Tue, Aug 30
55 °FCool.1 mph94%30.24 "HgN/A
10:20 PM57 °FCool.1 mph88%30.27 "HgN/A
9:20 PM59 °FCool.1 mph82%30.24 "HgN/A
8:20 PM63 °FPassing clouds.2 mph73%30.24 "HgN/A
7:20 PM68 °FPassing clouds.7 mph60%30.24 "HgN/A
6:20 PM70 °FPassing clouds.10 mph53%30.24 "HgN/A
5:20 PM72 °FPassing clouds.12 mph50%30.24 "HgN/A
4:20 PM70 °FScattered clouds.14 mph50%30.24 "HgN/A
3:20 PM70 °FScattered clouds.10 mph50%30.27 "HgN/A
2:20 PM70 °FScattered clouds.13 mph53%30.27 "HgN/A
1:20 PM66 °FScattered clouds.12 mph60%30.27 "HgN/A
12:20 PM66 °FPartly sunny.13 mph60%30.27 "HgN/A
11:20 AM66 °FPartly sunny.13 mph64%30.27 "HgN/A
10:20 AM64 °FPartly sunny.12 mph73%30.24 "HgN/A
9:20 AM61 °FPassing clouds.13 mph77%30.24 "HgN/A
8:20 AM57 °FPassing clouds.9 mph88%30.21 "HgN/A
7:20 AM54 °FPassing clouds.6 mph94%30.21 "HgN/A
6:20 AM54 °FPassing clouds.7 mph88%30.18 "HgN/A
Weather by CustomWeather, © 2016

See weather overviewHow to use our weather pages